CZ-4B DEB, 40530

Orbit data source: Space-Track

CZ-4B DEB, 40530 is space debris in LEO originally from a launch on Fri, 25 Oct 2013 UTC launched from the Jiuquan Satellite Launch Center, China (JSC). Debris objects in space refer to the collection of defunct objects orbiting the Earth. Examples of debris include non-operational satellites, rocket bodies, and fragments generated from explosions, collisions, or faulty payload assembly.

Loading next visibility...
Identifier
40530, 2013-057C
Orbit
LEO
Country
Flag of CNCN / PRC
Related business
Manufacturer
SAST
Mission
Spacecraft
Bus & Motor
Unknown
Mass
Unknown
Launch date (UTC)
2013-10-25 (12 years ago)
Launch vehicle
Unknown
Launch site
Jiuquan Satellite Launch Center, China (JSC)
Object type
Payload
Rocket body
Debris
Shape & HBR
Unknown shape, 0.1 m
Radar Cross Section
Small (<0.1 m²)

Expand to show TLE details & history
Last TLE update: 2 days ago

TLE from 2 days ago
0 CZ-4B DEB
1 40530U 13057C   25306.27880866  .00006947  00000-0  12257-2 0  9994
2 40530  75.0506 302.5443 0181295 317.8729  40.8621 14.57395836559282
Epoch: 2025-11-02T06:41Z
TLE epoch observation values (Epoch: 2025-11-02T06:41:29.068Z)
Latitude
0.00005°
Longitude
160.37637°
Altitude
608.22 km
Speed
7.606 km/s
True Right ascension
20h 10m 10s
True Declination
0° 00' 00"
Sunlit
Object was in daylight at epoch
Visualization orbit readout
Latitude
Unknown
Longitude
Unknown
Altitude
Unknown
Speed
Unknown
Apparent Right ascension
Unknown
Apparent Declination
Unknown
Sunlit
N/A
Visualization observer readout
Local Sidereal Time
17:54:59
Azimuth
Unknown
Elevation
Unknown
Doppler factor
Unknown
Orbital elements
Apogee altitude
827.416 km
Perigee altitude
570.803 km
Semi-major axis
7,077.246 km
Eccentricity
0.01813
Inclination
75.0506°
RAAN
302.5443°
Arg. of periapsis
317.8729°
True anomaly
42.24483°
Mean anomaly
40.8621°
Eccentric anomaly
41.55109°
Mean motion
3.64541 °/min
Orbital period
98.75 mins
BSTAR
0.0012257
Loading maneuver chart data...
Computing Atmospheric mass density...
Loading historical data...
Loading historical data...
Loading historical data...
Loading historical data...
Loading historical data...
Loading historical data...
Loading historical data...
Other satellites on launch #57 in the year 2013 (2013-10-25 UTC)

Documentation

Showing up to 5 results
|